Regional Weather Roundup
Issued by NWS Grand Forks, ND

Home | Current Version | Previous Version | Text Only | Print | Product List | Glossary Off
Versions: 1 2 3 4 5 6 7 8 9 10 11 12 13 14 15 16 17 18 19 20 21 22 23 24 25 26 27 28 29 30 31 32 33 34 35 36 37 38 39 40 41 42 43 44 45 46 47 48 49 50

000
ASUS43 KFGF 210231
RWRFGF
PRAIRIE TO PINES  WEATHER ROUNDUP
NATIONAL WEATHER SERVICE EASTERN NORTH DAKOTA/GRAND FORKS ND
900 PM CDT MON OCT 20 2014

 **SATELLITE DATA USED TO AUGMENT SKY COVER AT AUTOMATED STATIONS**
 *****  WEATHER ACROSS EASTERN NORTH DAKOTA  *****

CITY           SKY/WX    TMP DP  RH WIND       PRES   REMARKS
GRAND FORKS    CLEAR     46  39  76 SE8       30.03S
GRAND FRKS AFB CLEAR     46  41  84 SE6       30.03S
GRAND FRKS NWS   N/A     46 N/A N/A E7          N/A
DEVILS LAKE    CLEAR     52  39  62 SE12      29.97S
FARGO          CLEAR     48  39  71 E5        30.03S
WAHPETON ARPT  CLEAR     50  34  53 E7        30.04S
$$

 ***** WEATHER ACROSS CENTRAL AND WESTERN NORTH DAKOTA  *****

CITY           SKY/WX    TMP DP  RH WIND       PRES   REMARKS
BISMARCK       CLEAR     52  35  52 E6        29.94S
MINOT          CLEAR     54  35  48 SE8       29.89F
JAMESTOWN      CLEAR     52  41  66 SE10      29.99S
MINOT AFB      CLEAR     50  38  62 SE10      29.89S
GARRISON         N/A     51  39  63 SE7       29.91S
WILLISTON      CLEAR     55  41  59 CALM      29.81F
DICKINSON      CLEAR     57  41  55 SE12      29.87F
HETTINGER      CLEAR     56  40  55 E9        29.91S
$$

 *****  OTHER AIRPORT OBSERVATIONS IN OUR AREA  *****

CITY           SKY/WX    TMP DP  RH WIND       PRES   REMARKS
WALHALLA       FAIR      45  45 100 SE8       30.02S
GRAFTON AIRPOR FAIR      46  39  76 SE8       30.03S
VALLEY CITY AR FAIR      50  41  71 SE6       30.02S
CANDO          FAIR      48  41  76 SE9       29.97S
CAVALIER APRT  FAIR      48  39  71 SE6       30.03R
GWINNER        CLEAR     48  37  66 SE5       30.04R
ROLLA          FAIR      48  37  66 S13       29.97S
 ***** THE ABOVE OBSERVATIONS ARE NON NWS ARE NOT QUALITY
       CONTROLLED AND MAY MIS-REPORT RAIN FOR SNOW...
$$

  *****  WEATHER ACROSS NORTHERN MINNESOTA  *****

CITY           SKY/WX    TMP DP  RH WIND       PRES   REMARKS
FLAG ISLAND    CLEAR     45  37  76 E6        30.09S
WARROAD        CLEAR     43  39  87 E6        30.09S
ROSEAU         CLEAR     43  36  75 SE9       30.08S
HALLOCK        CLEAR     46  37  71 E8        30.04S
THF RVR FALLS  CLEAR     43  36  75 E7        30.06S
BAUDETTE       CLEAR     37  34  89 E6        30.10R
WASKISH        CLEAR     32  30  93 CALM      30.09S
CROOKSTON      CLEAR     46  37  71 SE7       30.06S
STEPHEN NDAWN    N/A     43  36  75 E6          N/A
GREENBUSH NDAW   N/A     41  36  81 E5          N/A
$$
  *****  WEATHER ACROSS CENTRAL AND WEST MINNESOTA  *****

CITY           SKY/WX    TMP DP  RH WIND       PRES   REMARKS
FOSSTON        CLEAR     37  28  70 E5        30.07S
BEMIDJI        CLEAR     34  33  96 CALM      30.08R
PARK RAPIDS    CLEAR     45  39  79 E6        30.07R
ELBOW LAKE     FAIR      49  39  70 NE5       30.04S
WADENA         CLEAR     46  36  66 E5        30.07R
DETROIT LAKES  CLEAR     46  37  71 E7        30.06S
MOORHEAD       CLEAR     48  39  71 E6        30.05S
FERGUS FALLS   CLEAR     48  34  57 E5        30.06R
MORRIS MN      CLEAR     46  37  71 NE5       30.03S
STAPLES        CLEAR     43  36  75 E3        30.07R
$$
  *****  WEATHER ELSEWHERE ACROSS MINNESOTA  *****

CITY           SKY/WX    TMP DP  RH WIND       PRES   REMARKS
DULUTH         CLOUDY    46  36  68 NE5       30.08S
INTRNTL FALLS  CLOUDY    44  36  73 E6        30.10S
ELY            CLOUDY    43  36  75 NE5       30.11R
CLOQUET        CLOUDY    46  36  66 N5        30.09S
WHEATON        CLEAR     45  36  70 E3        30.06R
BRAINERD       CLEAR     42  37  82 E3        30.08R
HIBBING        CLOUDY    46  35  65 NE3       30.10R
ALEXANDRIA     CLEAR     45  37  73 NE3       30.06R
SAINT CLOUD    CLEAR     49  38  65 MISG      30.06R
MINNEAPOLIS    CLEAR     51  40  65 NE7       30.06R
$$

  *****  WEATHER ACROSS SOUTH DAKOTA  *****

CITY           SKY/WX    TMP DP  RH WIND       PRES   REMARKS
SIOUX FALLS    CLEAR     47  38  71 W3        30.04R
BROOKINGS      NOT AVBL
WATERTOWN      CLEAR     52  37  56 CALM      30.04R
HURON          CLEAR     52  34  50 SE7       30.02S
SISSETON         N/A     42  37  82 SW5       30.03R
ABERDEEN       CLEAR     44  34  67 SE5       30.01S
MITCHELL       CLEAR     52  36  54 SE8       30.03S
PIERRE         CLEAR     62  39  42 E13       29.93F
MOBRIDGE       CLEAR     61  33  35 SE15      29.92F
RAPID CITY     CLEAR     56  44  64 CALM      29.91S
$$

  *****  SOME WEATHER IN NEARBY STATES *****

CITY           SKY/WX    TMP DP  RH WIND       PRES   REMARKS
GLASGOW MT     CLEAR     55  39  54 E13       29.75S
GREAT FALLS MT CLEAR     62  33  33 S9        29.74S
CHEYENNE WY    PTCLDY    56  35  45 W3        30.10R
SCOTTSBLUFF NE CLEAR     56  39  53 E9        29.99R
OMAHA NE       CLEAR     55  44  66 CALM      30.05S
DES MOINES IA  CLEAR     57  40  52 W3        30.03S
DAVENPORT IA   CLEAR     50  40  68 NW7       30.00R
CHICAGO IL     MOCLDY    54  41  61 N12       29.98R
EAU CLAIRE WI  PTCLDY    48  37  65 N7        30.05R
LA CROSSE WI   CLEAR     51  41  68 N5        30.04R
$$

  *****  SOME NATIONAL WEATHER *****

CITY           SKY/WX    TMP DP  RH WIND       PRES   REMARKS
LA GUARDIA NY  MOCLDY    57  41  55 S5        29.98S
RALEIGH NC     PTCLDY    56  48  74 CALM      29.99F
ATLANTA GA     MOCLDY    63  51  65 W3        30.01S
NEW ORLEANS LA PTCLDY    69  54  58 N3        30.01S
OKLAHOMA CITY  CLEAR     69  60  73 E7        30.03R
ALBUQUERQUE NM LGT RAIN  59  51  75 NE12      30.16R
SALT LAKE CITY PTCLDY    66  39  37 NE5       29.91R
LOS ANGELES CA PTCLDY    67  62  84 W13       29.88R
BOISE ID       PTCLDY    66  41  40 NE5       29.71S
SEATTLE WA     PTCLDY    58  51  78 S12       29.77S
$$

*** WEATHER ACROSS MANITOBA...SASKATCHEWAN AND ONTARIO ***
                ***ONTARIO***

CITY           SKY/WX    TMP DP  RH WIND       PRES   REMARKS
GERALDTON      CLEAR     32  30  93 N2        30.13R
THUNDER BAY    MOCLDY    36  34  93 NW2       30.14R
SIOUX LOOKOUT  CLOUDY    37  34  87 E3        30.15R
TORONTO        CLOUDY    52  48  87 W5        29.80S
BIG TROUT LK   CLOUDY    32  30  93 CALM      30.17F
PICKLE LAKE    DRIZZLE   34  32  93 E5        30.16R
DRYDEN         CLOUDY    39  34  81 E6        30.13R
KENORA         CLEAR     37  34  87 E7        30.11R
$$
                *** MANITOBA***

CITY           SKY/WX    TMP DP  RH WIND       PRES   REMARKS
BRANDON        CLEAR     41  39  93 E9        29.94F
DAUPHIN        CLEAR     43  41  93 E9        29.88F
ISLAND LAKE    CLOUDY    37  34  87 SE14      30.09S
PILOT MOUND      N/A     48  39  71 SE13        N/A
THE PAS        CLEAR     43  39  87 SE16G23   29.79F
THOMPSON       CLOUDY    36  36 100 SE9       29.94
WINNIPEG       CLEAR     45  37  76 SE9       30.04S
LYNN LAKE      CLOUDY    37  36  93 SE15G26   29.76S
CHURCHILL      CLOUDY    34  32  93 S16G22    30.01F WCI  23
GILLAM         CLOUDY    37  34  87 S10G17    30.04F
$$
                ***SASKATCHEWAN***

CITY           SKY/WX    TMP DP  RH WIND       PRES   REMARKS
ESTEVAN        CLEAR     54  43  66 SE12      29.81
KINDERSLEY     PTCLDY    55  34  44 SE12      29.62S
LLOYDMINSTER   CLEAR     55  34  44 S8        29.55F
PRINCE ALBERT  CLEAR     50  41  71 VRB2      29.63S
REGINA         CLEAR     54  43  66 SE10      29.76S
YORKTON        CLEAR     57  41  54 SE16G22   29.79F
N. BATTLEFORD  CLEAR     54  36  50 SE8       29.61F
LA RONGE       PTCLDY    54  45  71 SE13      29.60F
SASKATOON      CLEAR     61  43  51 S12       29.64F
SWIFT CURRENT  CLEAR     55  41  58 S12       29.70S
$$
NOTE: THESE ARE AUTOMATED STATIONS WITH LIMITED QUALITY CONTROL
      "FAIR" INDICATES FEW OR NO CLOUDS BELOW 12,000 FEET WITH NO
      SIGNIFICANT WEATHER AND/OR OBSTRUCTIONS TO VISIBILITY.
      SKY/WX - SKY CONDITION AND SIGNIFICANT WEATHER.
      TMP - AIR TEMPERATURE.    DP   - DEWPOINT TEMPERATURE.
      RH  - RELATIVE HUMIDITY.  PRES - PRESSURE.
      HX  - HEAT INDEX.         WCI  - WIND CHILL INDEX.
$


USA.gov is the U.S. government's official web portal to all federal, state and local government web resources and services.